Regional Weather Roundup
Issued by NWS Sioux Falls, SD

Home | Current Version | Previous Version | Text Only | Print | Product List | Glossary On
Versions: 1 2 3 4 5 6 7 8 9 10 11 12 13 14 15 16 17 18 19 20 21 22 23 24 25 26 27 28 29 30 31 32 33 34 35 36 37 38 39 40 41 42 43 44 45 46 47 48 49 50
349
ASUS43 KFSD 291610
RWRFSD

WEATHER ROUNDUP FOR SE SOUTH DAKOTA/SW MINNESOTA/NW IOWA
NATIONAL WEATHER SERVICE SIOUX FALLS SD
1100 AM CDT FRI JUL 29 2016

NOTE: "FAIR" INDICATES FEW OR NO CLOUDS BELOW 12,000 FEET WITH NO
SIGNIFICANT WEATHER AND OR OBSTRUCTIONS TO VISIBILITY.


SDZ038>040-050-052>070-291700-
SOUTHEAST SOUTH DAKOTA

CITY           SKY/WX    TMP DP  RH WIND       PRES   REMARKS
BROOKINGS      SUNNY     72  55  55 E9        30.12R
CHAMBERLAIN    MOSUNNY   75  61  62 CALM      30.11S
HURON          SUNNY     74  55  51 SE8       30.10S
MADISON        FAIR      72  59  64 E7        30.13R
MITCHELL       SUNNY     74  57  55 E5        30.11S
SIOUX FALLS    MOSUNNY   73  58  59 NE5       30.11R
WINNER         CLOUDY    69  63  81 SE9       30.12S
YANKTON        MOSUNNY   72  55  56 NE6       30.09F
$$

MNZ071-072-080-081-089-090-097-098-291700-
SOUTHWEST MINNESOTA

CITY           SKY/WX    TMP DP  RH WIND       PRES   REMARKS
FAIRMONT       CLOUDY    66  61  82 N6        30.08R
JACKSON        PTSUNNY   68  59  73 CALM      30.11R
LUVERNE        MOSUNNY   70  55  60 E6        30.12R
MARSHALL       SUNNY     70  59  68 NE7       30.12R
MONTEVIDEO     SUNNY     75  57  53 E5        30.13R
REDWOOD FALLS  SUNNY     73  58  59 NE7       30.10R
TRACY          SUNNY     69  60  72 NE6       30.12S
WINDOM         CLOUDY    70  59  68 N7        30.10S
WORTHINGTON    CLOUDY    70  58  65 N7        30.12R
$$

IAZ001>003-012>014-020>022-031-032-NEZ013-014-SDZ071-291700-
NORTHWEST IOWA

CITY           SKY/WX    TMP DP  RH WIND       PRES   REMARKS
CHEROKEE       MOSUNNY   71  63  76 NE6       30.08S
DENISON        MOSUNNY   73  63  68 N9        30.05F
ESTHERVILLE      N/A     70  62  76 N6        30.08F
LE MARS        MOSUNNY   73  61  64 VRB6      30.10S
SHELDON        CLOUDY    72  61  68 NE7G14    30.09R
SIOUX CITY     PTSUNNY   74  60  61 VRB3      30.08S
SPENCER        CLOUDY    70  61  73 NE6       30.09S
STORM LAKE     MOSUNNY   68  63  83 NE8       30.09R
$$

ABBREVIATIONS USED IN REMARKS
   TC - TEMPERATURE IN CELSIUS
  WCI - WIND CHILL INDEX
   HX - HEAT INDEX
  VSB - VISIBILITY





USA.gov is the U.S. government's official web portal to all federal, state and local government web resources and services.